Temp
-14 -14 -14 -14 -13 -12 -12 -13 -13 -12 -12 -12 -12 -12 -12 -12 -12 -12 -12 -12 -12 -13 -13 -13 -13 -13 -13 -13 -13 -13 -14 -14 -15 -17 -17 -16 -17 -17 -16 -16 -15 -15 -15
-14 -14 -14 -14 -13 -12 -12 -13 -13 -13 -12 -13 -12 -13 -13 -12 -12 -12 -13 -13 -13 -13 -13 -13 -13 -13 -13 -14 -14 -14 -15 -15 -16 -17 -16 -16 -16 -16 -15 -16 -15 -15 -15
-14 -14 -14 -14 -14 -13 -13 -13 -13 -13 -13 -13 -13 -13 -13 -13 -13 -13 -13 -13 -13 -13 -13 -13 -13 -13 -14 -14 -14 -15 -15 -16 -17 -16 -16 -16 -16 -16 -16 -16 -16 -15 -15
-15 -14 -14 -13 -14 -14 -14 -14 -13 -13 -13 -13 -13 -13 -13 -13 -13 -13 -13 -13 -13 -13 -13 -13 -14 -14 -14 -14 -15 -15 -16 -16 -16 -16 -16 -16 -16 -16 -16 -16 -15 -16 -16
-15 -14 -14 -14 -14 -14 -14 -14 -14 -14 -13 -13 -12 -12 -13 -13 -13 -14 -13 -13 -13 -13 -13 -14 -14 -14 -14 -15 -15 -15 -16 -16 -16 -16 -16 -15 -16 -16 -16 -16 -16 -16 -16
-15 -15 -14 -14 -14 -14 -14 -14 -14 -14 -14 -13 -13 -13 -13 -13 -14 -14 -14 -13 -13 -13 -13 -14 -14 -14 -15 -15 -15 -16 -16 -16 -16 -16 -16 -16 -16 -16 -15 -16 -16 -16 -16
-14 -14 -14 -14 -14 -14 -14 -14 -14 -14 -14 -13 -13 -14 -13 -13 -14 -14 -14 -14 -14 -14 -14 -14 -14 -15 -15 -16 -16 -16 -16 -16 -16 -16 -16 -16 -16 -16 -16 -16 -16 -16 -16
-15 -15 -14 -14 -14 -14 -14 -14 -14 -14 -14 -14 -14 -14 -14 -14 -14 -13 -14 -14 -14 -14 -14 -15 -15 -15 -15 -16 -16 -16 -16 -16 -16 -16 -16 -16 -16 -16 -16 -17 -16 -16 -17
-15 -15 -15 -14 -14 -14 -14 -14 -14 -14 -14 -14 -14 -14 -14 -14 -14 -14 -14 -14 -14 -15 -15 -15 -15 -15 -15 -15 -15 -15 -15 -16 -16 -17 -16 -16 -16 -16 -16 -16 -16 -17 -17
-15 -15 -15 -15 -14 -14 -15 -15 -15 -15 -14 -14 -15 -14 -15 -14 -14 -14 -15 -15 -15 -15 -15 -15 -15 -15 -15 -15 -16 -16 -16 -16 -17 -17 -17 -16 -16 -16 -16 -17 -17 -17 -17
-15 -15 -16 -15 -15 -15 -15 -15 -15 -15 -15 -15 -15 -15 -15 -15 -15 -15 -15 -16 -15 -15 -15 -15 -15 -16 -16 -16 -16 -16 -16 -16 -16 -17 -16 -16 -16 -16 -16 -16 -17 -17 -17
-16 -15 -16 -15 -15 -15 -15 -15 -15 -15 -15 -15 -15 -15 -15 -15 -15 -15 -16 -16 -16 -15 -15 -15 -15 -15 -16 -15 -15 -16 -16 -16 -16 -16 -16 -15 -15 -16 -16 -16 -17 -17 -17
-16 -16 -16 -16 -16 -16 -16 -16 -16 -16 -16 -15 -15 -15 -15 -15 -15 -16 -16 -15 -16 -16 -16 -15 -15 -15 -15 -15 -15 -16 -16 -16 -15 -15 -15 -16 -16 -16 -16 -16 -17 -17 -17
-16 -16 -15 -16 -16 -16 -16 -16 -16 -16 -16 -16 -15 -15 -16 -16 -16 -16 -16 -16 -16 -15 -15 -16 -15 -15 -16 -16 -16 -16 -16 -16 -15 -15 -15 -16 -16 -16 -16 -17 -17 -17 -17
-16 -16 -16 -16 -17 -16 -16 -16 -16 -16 -16 -16 -16 -15 -15 -15 -15 -15 -15 -15 -15 -15 -15 -16 -16 -16 -16 -16 -16 -16 -16 -16 -16 -15 -16 -16 -16 -16 -17 -18 -17 -17 -18
-16 -17 -16 -16 -16 -17 -17 -16 -17 -17 -17 -16 -16 -16 -16 -15 -15 -15 -15 -15 -15 -15 -15 -16 -16 -16 -16 -16 -16 -16 -16 -16 -16 -16 -16 -17 -17 -18 -18 -18 -18 -18 -18
-16 -16 -17 -16 -16 -16 -16 -17 -17 -17 -17 -16 -16 -16 -16 -16 -16 -16 -16 -16 -16 -16 -16 -16 -16 -16 -16 -16 -16 -16 -16 -16 -16 -16 -17 -17 -17 -17 -17 -18 -19 -19 -19
-17 -17 -17 -17 -17 -17 -17 -17 -17 -17 -16 -16 -16 -16 -16 -16 -16 -16 -16 -16 -16 -16 -16 -16 -16 -16 -16 -16 -16 -16 -17 -17 -17 -17 -17 -17 -18 -18 -18 -17 -18 -19 -20
-17 -17 -17 -17 -17 -17 -17 -16 -17 -17 -16 -16 -16 -16 -16 -16 -16 -16 -16 -16 -16 -16 -16 -16 -16 -16 -16 -16 -17 -17 -17 -17 -17 -18 -18 -18 -18 -19 -19 -19 -19 -19 -19
-17 -16 -17 -17 -16 -17 -17 -17 -17 -17 -16 -16 -16 -16 -16 -16 -16 -16 -16 -16 -16 -16 -16 -16 -16 -17 -17 -17 -17 -17 -18 -18 -18 -18 -18 -18 -18 -18 -19 -19 -19 -20 -20
-16 -17 -17 -17 -17 -17 -17 -17 -17 -17 -17 -17 -17 -17 -17 -16 -16 -16 -16 -16 -16 -16 -17 -17 -17 -17 -17 -17 -18 -18 -18 -18 -18 -18 -18 -19 -19 -19 -19 -19 -19 -20 -20
-16 -16 -17 -17 -17 -18 -17 -17 -17 -17 -17 -17 -17 -17 -17 -17 -17 -17 -17 -17 -17 -17 -17 -17 -17 -17 -17 -17 -18 -18 -19 -19 -19 -19 -19 -19 -19 -19 -19 -20 -20 -21 -21
-17 -17 -17 -17 -17 -16 -16 -17 -17 -17 -17 -18 -18 -18 -17 -17 -17 -17 -17 -17 -17 -17 -17 -17 -17 -17 -17 -18 -18 -18 -19 -19 -19 -19 -19 -19 -20 -20 -20 -20 -21 -21 -21
-17 -17 -17 -17 -17 -17 -17 -16 -17 -17 -18 -18 -18 -18 -17 -17 -17 -17 -17 -17 -17 -17 -18 -18 -18 -18 -18 -18 -19 -19 -19 -19 -19 -19 -20 -20 -20 -20 -21 -21 -22 -22 -22
-16 -16 -16 -16 -16 -16 -16 -17 -17 -18 -17 -18 -18 -18 -18 -18 -18 -18 -18 -18 -18 -18 -18 -18 -18 -18 -19 -19 -19 -19 -19 -19 -19 -19 -20 -20 -20 -21 -21 -21 -21 -22 -22
-16 -16 -16 -17 -17 -17 -17 -17 -18 -18 -18 -17 -17 -18 -18 -18 -18 -18 -18 -18 -18 -18 -18 -19 -19 -19 -19 -19 -19 -19 -19 -20 -20 -20 -21 -21 -21 -22 -22 -22 -23 -23 -24
Height
5723 5720 5715 5709 5705 5706 5708 5711 5711 5712 5713 5712 5713 5718 5725 5730 5735 5739 5744 5750 5753 5756 5759 5761 5763 5765 5765 5766 5769 5769 5770 5770 5770 5773 5775 5778 5779 5780 5781 5782 5782 5781 5782
5721 5719 5716 5711 5707 5705 5706 5709 5711 5711 5714 5715 5716 5721 5726 5731 5735 5738 5742 5746 5750 5753 5754 5756 5757 5758 5760 5761 5763 5763 5764 5764 5766 5769 5772 5774 5776 5775 5776 5777 5776 5775 5774
5720 5719 5717 5713 5710 5706 5706 5709 5709 5710 5713 5716 5718 5721 5724 5728 5732 5736 5740 5743 5747 5748 5749 5749 5751 5753 5754 5755 5756 5757 5759 5761 5764 5765 5769 5770 5770 5769 5770 5770 5769 5767 5765
5718 5717 5716 5715 5713 5709 5707 5707 5708 5708 5710 5713 5714 5717 5720 5724 5728 5732 5734 5739 5742 5744 5745 5744 5745 5747 5748 5749 5752 5753 5755 5757 5760 5761 5763 5763 5763 5763 5763 5761 5760 5758 5757
5715 5715 5715 5714 5714 5712 5710 5708 5708 5709 5710 5710 5711 5713 5717 5722 5725 5726 5730 5733 5736 5738 5738 5739 5739 5741 5743 5746 5747 5750 5752 5753 5754 5755 5756 5756 5756 5756 5755 5754 5753 5750 5747
5713 5713 5713 5712 5713 5712 5712 5711 5711 5711 5712 5712 5711 5711 5714 5717 5719 5722 5725 5728 5730 5731 5732 5733 5736 5741 5741 5746 5745 5745 5746 5748 5749 5750 5749 5750 5749 5749 5748 5744 5744 5742 5740
5711 5711 5712 5711 5711 5711 5710 5711 5711 5712 5712 5712 5713 5714 5716 5717 5718 5720 5722 5726 5727 5729 5732 5734 5736 5739 5739 5740 5739 5740 5742 5743 5742 5741 5741 5741 5741 5741 5739 5736 5733 5731 5728
5710 5709 5710 5711 5710 5709 5710 5709 5708 5709 5710 5712 5713 5712 5715 5717 5718 5720 5720 5723 5727 5728 5731 5732 5733 5733 5733 5735 5735 5736 5737 5737 5736 5734 5735 5732 5732 5730 5727 5725 5722 5719 5716
5707 5707 5707 5708 5709 5709 5708 5708 5708 5709 5710 5711 5711 5711 5714 5715 5717 5718 5719 5722 5724 5724 5728 5729 5728 5727 5728 5728 5728 5729 5730 5727 5727 5727 5726 5724 5722 5720 5717 5713 5710 5706 5705
5701 5703 5703 5705 5706 5707 5706 5707 5707 5707 5709 5710 5710 5711 5711 5713 5714 5716 5716 5717 5718 5719 5720 5721 5723 5723 5723 5723 5721 5722 5721 5718 5716 5714 5713 5712 5710 5709 5706 5703 5699 5694 5693
5696 5698 5699 5702 5702 5703 5703 5703 5704 5704 5704 5704 5706 5706 5707 5709 5711 5712 5712 5714 5714 5715 5716 5717 5717 5718 5717 5715 5713 5711 5708 5705 5704 5703 5699 5698 5698 5695 5694 5691 5689 5686 5682
5691 5695 5696 5697 5697 5698 5698 5698 5698 5698 5700 5699 5700 5702 5703 5705 5705 5707 5708 5709 5709 5708 5709 5710 5710 5709 5709 5707 5703 5702 5701 5696 5694 5691 5692 5687 5685 5685 5684 5677 5676 5673 5670
5687 5689 5691 5692 5693 5693 5693 5693 5692 5693 5693 5694 5696 5697 5698 5698 5699 5699 5701 5701 5701 5702 5703 5702 5702 5701 5700 5697 5691 5693 5690 5688 5685 5682 5680 5680 5678 5675 5674 5671 5665 5660 5655
5681 5683 5686 5687 5688 5688 5689 5688 5688 5688 5688 5689 5691 5693 5693 5693 5694 5694 5695 5696 5696 5696 5696 5695 5693 5693 5690 5689 5685 5684 5682 5679 5677 5674 5671 5668 5666 5664 5661 5656 5651 5647 5642
5674 5677 5680 5682 5683 5683 5684 5683 5682 5683 5683 5683 5684 5684 5686 5687 5688 5689 5689 5689 5689 5688 5687 5685 5684 5682 5681 5680 5677 5674 5671 5669 5667 5664 5661 5657 5653 5648 5643 5640 5637 5631 5624
5665 5671 5674 5676 5677 5678 5678 5677 5676 5677 5678 5678 5678 5678 5679 5680 5680 5681 5681 5680 5680 5679 5677 5676 5675 5673 5671 5668 5665 5661 5659 5656 5653 5650 5647 5642 5638 5630 5627 5624 5618 5611 5610
5659 5661 5665 5668 5670 5670 5671 5670 5670 5670 5671 5673 5673 5672 5672 5673 5674 5673 5672 5672 5671 5670 5668 5666 5663 5661 5659 5656 5653 5649 5645 5642 5637 5634 5631 5627 5623 5616 5612 5607 5605 5598 5592
5652 5655 5656 5659 5661 5662 5663 5664 5664 5664 5665 5664 5665 5665 5665 5665 5665 5665 5665 5663 5662 5660 5658 5655 5652 5650 5647 5645 5640 5636 5632 5628 5624 5619 5615 5611 5607 5605 5599 5593 5585 5580 5576
5641 5645 5648 5650 5653 5654 5656 5656 5657 5657 5658 5658 5658 5657 5656 5656 5655 5655 5653 5652 5650 5647 5645 5642 5640 5637 5633 5630 5626 5622 5618 5613 5609 5604 5600 5596 5591 5586 5580 5576 5569 5562 5556
5633 5635 5639 5642 5644 5646 5648 5648 5648 5648 5649 5648 5648 5648 5648 5647 5646 5645 5644 5642 5639 5636 5633 5630 5627 5624 5620 5617 5613 5609 5603 5599 5594 5589 5583 5579 5573 5568 5562 5555 5549 5542 5535
5623 5626 5630 5633 5635 5638 5639 5640 5640 5639 5639 5638 5638 5637 5637 5636 5635 5634 5633 5630 5627 5623 5620 5617 5613 5610 5605 5601 5596 5591 5585 5580 5574 5569 5564 5559 5553 5547 5541 5534 5527 5519 5512
5613 5617 5621 5625 5627 5628 5629 5629 5629 5629 5630 5629 5628 5627 5626 5624 5623 5621 5618 5615 5612 5609 5606 5602 5598 5593 5588 5582 5578 5572 5567 5561 5556 5550 5544 5538 5532 5526 5519 5512 5504 5496 5488
5604 5608 5611 5613 5615 5617 5618 5620 5620 5620 5618 5617 5617 5615 5614 5611 5609 5606 5604 5601 5598 5595 5591 5586 5581 5576 5571 5566 5561 5555 5550 5544 5537 5531 5525 5518 5512 5504 5497 5489 5480 5472 5463
5594 5597 5600 5603 5606 5608 5610 5610 5610 5609 5608 5607 5605 5603 5601 5599 5597 5593 5591 5588 5584 5580 5575 5571 5566 5561 5556 5550 5544 5539 5533 5527 5520 5512 5504 5497 5489 5481 5472 5463 5455 5445 5436
5586 5589 5592 5595 5597 5599 5600 5600 5600 5599 5598 5596 5594 5592 5590 5587 5584 5581 5577 5574 5569 5565 5560 5555 5550 5545 5539 5534 5528 5522 5515 5508 5500 5492 5483 5475 5466 5456 5447 5437 5427 5416 5406
5579 5582 5585 5586 5587 5589 5588 5590 5590 5588 5587 5585 5583 5580 5577 5574 5570 5567 5563 5559 5555 5550 5545 5540 5534 5529 5523 5517 5510 5503 5496 5488 5480 5471 5461 5451 5441 5430 5419 5407 5396 5384 5372
Wind_Speed
12 13 18 16 9 13 15 11 8 8 13 22 18 20 28 30 27 32 31 32 30 25 31 32 29 29 28 27 30 31 32 29 27 23 21 22 24 22 23 25 27 29 30
11 10 15 17 5 7 10 10 9 14 11 17 27 22 25 28 22 24 28 29 28 28 28 29 34 33 29 29 30 30 28 25 20 22 22 22 22 25 25 27 30 32 34
10 8 11 13 14 1 5 11 10 11 20 16 22 25 23 30 25 27 29 34 33 33 32 30 34 32 32 30 31 28 25 21 22 24 25 24 24 26 27 30 33 36 38
12 10 6 8 10 11 3 2 3 7 12 16 20 23 27 25 32 30 33 35 32 31 30 27 28 28 28 23 22 21 22 24 24 25 27 27 25 27 29 33 37 39 40
11 12 8 4 4 6 6 4 2 1 4 9 14 20 23 25 26 30 32 31 30 31 30 29 26 23 18 19 22 23 24 27 28 28 30 28 27 31 33 34 37 40 41
11 10 10 8 5 2 2 1 2 3 4 4 5 8 10 13 15 17 23 26 21 16 14 14 16 19 20 24 24 26 26 28 31 33 34 34 33 34 37 40 42 44 45
9 8 8 8 9 6 3 5 5 5 3 3 3 4 5 7 7 9 10 12 13 14 15 16 18 21 23 26 28 29 31 31 35 40 37 34 38 44 43 46 43 45 47
12 10 11 11 9 10 8 6 6 6 6 7 8 7 8 9 9 10 11 13 16 14 13 15 18 20 20 24 27 32 34 38 37 38 37 36 47 46 45 44 46 47 46
19 15 15 12 14 8 8 10 8 9 9 10 10 10 12 12 11 11 12 13 15 15 15 15 16 18 20 23 26 29 34 36 38 39 41 44 48 50 48 48 50 49 46
19 16 11 13 14 14 9 8 12 13 12 13 12 12 11 12 12 14 14 15 15 14 15 17 19 21 23 27 31 33 35 40 42 45 48 51 50 49 51 52 50 47 48
21 26 20 20 17 20 20 18 17 19 18 18 18 17 16 18 18 18 18 18 15 17 17 20 22 25 28 32 35 39 42 45 48 52 57 55 56 45 50 52 46 47 49
24 26 20 17 16 20 23 24 24 25 23 23 21 20 20 22 27 22 22 20 18 19 21 24 26 29 31 36 36 41 49 46 52 55 56 51 53 53 50 45 48 52 52
21 22 20 17 19 19 25 27 21 21 26 25 23 21 21 20 22 25 22 21 20 22 26 27 29 29 33 30 38 37 29 31 33 35 41 43 44 49 53 53 57 55 56
24 24 27 19 20 18 22 25 23 19 22 26 25 22 20 20 17 18 21 24 26 27 28 30 31 29 33 33 35 36 37 37 37 38 38 41 46 51 46 58 55 56 60
27 28 26 23 25 18 19 21 22 21 18 21 23 25 22 21 20 21 22 25 28 29 31 32 33 35 37 38 40 40 39 40 42 45 46 50 51 57 58 55 52 58 59
22 21 22 20 22 20 21 21 23 25 24 21 22 25 26 25 26 26 26 28 30 31 33 36 38 40 41 41 42 43 42 43 44 45 46 49 53 61 59 48 54 49 61
30 25 19 19 25 23 19 18 23 25 26 25 26 29 31 31 30 31 33 33 33 35 37 39 40 42 43 43 44 46 48 47 49 50 49 49 51 49 53 59 50 63 58
32 30 25 22 21 19 21 19 19 23 25 26 27 29 32 36 36 37 38 38 38 38 39 40 42 44 45 46 48 50 50 51 52 54 55 55 54 52 58 71 73 70 74
29 26 28 24 24 23 24 18 18 21 21 21 23 24 27 30 32 35 38 39 41 41 41 43 45 47 49 50 51 54 56 57 57 58 58 59 60 59 60 64 71 73 74
36 30 24 28 29 28 24 20 22 21 21 21 22 24 26 28 32 34 36 38 40 42 44 47 49 51 52 53 55 57 57 57 57 58 60 63 65 65 65 71 72 74 77
34 26 27 31 32 28 24 22 22 23 25 26 27 27 30 32 35 38 40 42 45 47 47 49 50 51 53 56 58 59 59 60 61 62 64 65 66 69 71 74 76 77 78
40 33 32 33 33 31 29 27 28 30 31 34 34 34 35 37 39 42 45 47 48 48 48 49 52 56 57 57 58 58 60 62 63 64 66 67 69 72 74 75 76 77 79
40 38 40 40 38 35 31 33 34 36 33 32 36 40 42 43 42 42 43 44 45 48 51 54 55 56 58 58 59 60 62 64 65 66 67 70 72 74 76 80 82 85 89
41 43 44 43 40 37 36 34 30 35 36 38 38 38 38 37 42 44 45 47 49 51 52 53 55 56 57 56 57 58 60 63 67 70 73 77 79 81 83 85 88 91 94
40 43 34 33 31 39 41 44 37 38 38 37 36 36 39 43 45 47 48 50 50 51 51 52 53 54 54 53 57 61 64 68 72 74 77 80 84 87 90 93 95 98 101
31 30 32 29 26 32 44 38 38 36 36 37 40 44 47 49 49 49 48 48 49 50 50 51 52 54 58 61 65 70 73 76 77 79 82 85 88 91 95 98 101 103 106
Wind_Direction
318 341 333 338 279 238 233 214 218 191 177 160 135 138 163 175 186 189 193 210 210 228 227 234 232 247 257 257 260 261 266 258 244 235 232 243 248 254 252 260 265 271 277
313 345 335 357 328 232 225 219 197 194 195 185 170 172 182 186 196 202 203 202 212 228 238 232 241 249 253 256 261 262 255 239 232 231 241 248 253 259 262 266 271 275 279
304 326 343 355 11 103 221 227 232 226 200 196 200 200 208 200 205 210 215 223 226 234 235 239 242 247 252 258 257 252 247 227 232 237 245 252 257 264 267 269 273 278 281
290 310 329 357 11 29 46 241 267 230 215 214 220 210 213 208 221 228 230 219 231 236 248 245 243 246 251 242 233 227 224 230 236 245 256 257 255 261 266 271 273 275 278
276 295 301 333 3 21 37 52 76 230 212 218 214 217 216 224 233 229 236 230 233 240 251 250 246 240 222 223 224 228 232 242 250 256 266 259 261 264 270 272 275 278 279
264 274 284 294 304 324 280 158 107 171 193 192 163 164 170 191 204 213 223 235 236 227 223 216 222 232 225 236 238 239 243 251 256 261 263 264 268 273 270 272 279 278 282
257 266 287 307 295 276 257 239 227 202 185 178 172 171 179 196 199 206 210 218 222 229 227 228 230 240 243 247 250 244 244 244 250 257 262 266 270 266 268 271 278 280 289
253 263 284 294 299 293 268 245 231 241 231 221 207 199 205 209 208 209 214 222 230 229 239 242 245 251 259 262 262 258 258 258 257 256 261 259 263 265 270 274 281 283 286
241 254 265 270 291 269 287 279 252 233 225 230 217 211 218 221 221 224 225 226 237 241 249 256 255 261 262 266 268 267 265 266 264 262 261 260 264 269 270 273 277 280 280
243 233 243 268 285 251 251 283 273 256 244 231 232 229 229 230 231 233 236 240 245 255 263 267 265 268 267 267 268 267 269 268 267 268 266 264 271 270 269 272 273 281 287
233 240 252 269 272 260 263 271 272 257 248 249 248 253 260 266 258 246 242 245 249 258 270 269 267 269 273 272 274 274 278 279 269 267 271 271 273 272 264 273 278 278 286
241 254 246 257 268 268 267 271 273 253 250 251 254 260 261 278 269 250 246 250 257 265 271 272 272 272 284 275 284 285 277 282 284 268 268 278 276 266 271 278 281 287 289
238 245 249 260 268 260 272 275 262 254 250 256 261 266 271 267 273 233 243 258 260 266 269 277 276 277 289 282 279 282 290 284 285 278 280 274 274 283 283 277 283 287 289
245 252 259 267 254 268 279 278 255 265 250 250 257 261 261 263 263 251 254 259 263 265 273 276 278 282 283 285 285 291 286 286 286 284 278 272 275 275 276 274 283 285 286
236 247 256 248 239 267 275 289 264 258 253 250 253 257 255 254 255 258 263 266 270 274 277 279 281 284 281 283 284 286 286 283 283 283 278 279 279 276 273 274 281 285 285
230 231 252 250 241 260 276 279 258 254 261 260 254 253 255 260 263 263 266 269 273 275 276 277 277 277 280 283 284 286 286 286 285 282 280 278 287 285 271 272 284 290 288
242 249 254 254 247 260 269 264 259 261 259 259 265 266 265 264 264 265 267 270 273 277 277 277 278 279 281 283 284 284 286 285 287 287 285 284 283 294 273 282 277 284 286
245 254 242 246 248 253 265 258 254 251 259 264 266 265 263 262 263 263 266 269 272 276 277 276 277 278 280 280 281 282 283 284 286 287 287 287 286 282 283 282 275 290 287
239 236 246 243 243 256 267 261 256 252 260 266 268 271 271 269 266 266 267 272 276 278 280 279 279 280 281 281 282 284 285 286 287 287 288 288 288 288 285 281 283 283 287
244 237 237 233 243 250 256 262 262 266 272 273 276 278 280 278 277 276 277 280 283 283 282 283 285 286 286 289 289 289 289 289 290 289 289 288 289 290 287 289 290 286 284
241 235 232 237 244 248 254 264 263 262 263 269 276 282 284 286 286 285 283 283 282 284 287 287 287 289 289 289 288 289 289 290 290 290 291 292 291 290 290 289 289 290 290
235 214 224 229 236 243 251 260 259 264 272 279 283 282 283 282 281 281 280 281 284 285 285 285 286 289 291 290 290 290 290 291 292 294 294 293 291 289 289 290 289 288 286
213 212 224 233 239 244 247 255 266 270 271 279 284 284 285 284 284 284 285 284 285 286 289 290 290 291 292 292 292 293 293 293 294 293 292 292 291 290 289 290 288 286 286
220 220 225 235 242 245 256 266 284 291 282 286 283 283 283 283 288 287 286 286 287 289 290 292 292 293 294 295 296 296 296 296 295 295 295 294 293 292 290 288 287 287 287
235 233 229 243 258 255 265 261 276 287 282 284 284 286 286 288 291 292 290 291 291 291 291 291 291 292 293 294 297 299 299 299 297 294 293 292 291 290 289 289 288 288 287
239 247 258 259 245 269 275 266 276 284 283 283 287 291 291 291 291 290 289 289 290 291 292 293 293 292 292 294 298 299 299 298 297 295 294 292 291 291 289 289 288 288 287